Location: Rancho Del Sol Observatory
(38.7214°N, 120.6350°W)
Time: 22:45:01
(UTC-08:00)

A-11 Canister half - Pass Details

Date: 01 February 2020
Orbit: 1517 x 1683 km, 47.2° (Epoch: 17 February)

Event Time Altitude Azimuth Distance (km) Brightness Sun altitude
Rises 02:06:25 0° 294° (WNW) 4,704 - -57.7°
Reaches altitude 10° 02:09:34 10° 298° (WNW) 3,705 - -57.2°
Maximum altitude 02:18:46 62° 18° (NNE) 1,682 - -55.7°
Exits shadow 02:25:34 20° 94° (E) 2,965 10.7 -54.5°
Drops below altitude 10° 02:27:55 10° 99° (E) 3,682 11.3 -54.1°
Sets 02:31:02 0° 103° (ESE) 4,672 11.9 -53.6°
